Regional Weather Roundup
Issued by NWS

Home | Current Version | Previous Version | Graphics & Text | Print | Product List | Glossary On
Versions: 1 2 3 4 5 6 7 8 9 10 11 12 13 14 15 16 17 18 19 20 21 22 23 24 25 26 27 28 29 30 31 32 33 34 35 36 37 38 39 40 41 42 43 44 45 46 47 48 49 50
000
ASUS43 KMKX 130821
RWRWI

WISCONSIN REGIONAL WEATHER ROUNDUP
NATIONAL WEATHER SERVICE MILWAUKEE/SULLIVAN WI
300 AM CDT SUN JUL 13 2014

NOTE: "FAIR" INDICATES FEW OR NO CLOUDS BELOW 12,000 FEET WITH NO
SIGNIFICANT WEATHER AND/OR OBSTRUCTIONS TO VISIBILITY.

WIZ001-002-006>008-014>016-023>028-130900-
NORTHWEST WISCONSIN

CITY           SKY/WX    TMP DP  RH WIND       PRES   REMARKS
SUPERIOR ARPT  PTCLDY    58  54  85 NW10      29.87S
ASHLAND        PTCLDY    56  52  86 SW5       29.84S
HAYWARD        PTCLDY    61  58  90 CALM      29.87S
SIREN          CLOUDY    60  56  89 NW3       29.89S
RICE LAKE      PTCLDY    62  60  95 W6        29.89R
LADYSMITH      PTCLDY    64  63  96 W8        29.89R
EAU CLAIRE     CLEAR     64  63  96 SW8       29.86F
MENOMONIE      SUNNY     63  62  97 SW3       29.88S
NEW RICHMOND   PTCLDY    64  63  96 NW5       29.90R
OSCEOLA        PTCLDY    65  63  93 NW3       29.92S
$$

WIZ003>005-009-010-017-018-130900-
NORTH CENTRAL WISCONSIN

CITY           SKY/WX    TMP DP  RH WIND       PRES   REMARKS
WOODRUFF       MOCLDY    63  60  91 W7        29.83F
RHINELANDER    CLOUDY    62  61  96 W10       29.85F
EAGLE RIVER    PTCLDY    60  60  99 W6        29.82F
LAND O LAKES   MOCLDY    64  61  90 W8        29.83F
PHILLIPS       CLEAR     61  60  98 W5        29.85F
TOMAHAWK         N/A     60  59  96 W3        29.85F
MEDFORD        CLOUDY    62  62  99 W5        29.87F
MERRILL        PTCLDY    62  62  99 W7        29.85F
$$

WIZ029-030-035-036-043>047-130900-
CENTRAL WISCONSIN

CITY           SKY/WX    TMP DP  RH WIND       PRES   REMARKS
WAUSAU         CLOUDY    63  62  97 W10       29.85F
MOSINEE        CLOUDY    61  61 100 W12       29.88S FOG
MARSHFIELD     CLOUDY    64  63  96 W8        29.88S FOG
STEVENS POINT  PTCLDY    60  59  97 W6        29.87F
WAUPACA        CLEAR     64  62  92 W8        29.86S
WAUTOMA        CLEAR     63  62  96 W7        29.88S
WISC RAPIDS    CLOUDY    62  61  96 W6        29.89S FOG
CAMP DOUGLAS   CLOUDY    62  62 100 W6        29.90S
$$

WIZ011>013-019>022-031-037>040-048>050-130900-
NORTHEAST WISCONSIN

CITY           SKY/WX    TMP DP  RH WIND       PRES   REMARKS
ANTIGO         CLOUDY    61  60  97 NW8       29.85F
STURGEON BAY   CLEAR     63  57  82 W7        29.81S
GREEN BAY      CLEAR     63  62  97 W8        29.83S
MANITOWOC      CLEAR     63  62  97 CALM      29.84R
APPLETON       CLEAR     61  61 100 W8        29.85S
CLINTONVILLE   CLEAR     63  61  94 W7        29.84S
OSHKOSH        CLEAR     64  62  93 W7        29.85R
$$

WIZ032>034-041-042-053>061-130900-
SOUTHWEST WISCONSIN

CITY           SKY/WX    TMP DP  RH WIND       PRES   REMARKS
LA CROSSE      CLEAR     64  63  96 CALM      29.91R
SPARTA         FOG       62  61  97 SW3       29.91S VSB 1/2
VIROQUA        CLOUDY    64  64 100 W3        29.93S VSB 1/4
BOSCOBEL       CLOUDY    66  63  90 SW6       29.92R
PRAIRIE DU CHI CLOUDY    66  64  92 W5        29.92F
PLATTEVILLE    CLOUDY    63  62  95 W6        29.94S
$$

WIZ056-057-062-063-064-067-068-130900-
SOUTH CENTRAL WISCONSIN

CITY           SKY/WX    TMP DP  RH WIND       PRES   REMARKS
BARABOO/DELLS  CLEAR     61  59  94 CALM      29.90R FOG
LONE ROCK      CLOUDY    67  63  87 W5        29.91F
WATERTOWN      MOCLDY    63  63 100 W6        29.88S
MADISON        CLOUDY    65  63  93 VRB3      29.90R
MIDDLETON      CLOUDY    65  65 100 W5        29.91R
MONROE         CLOUDY    64  63  94 NW8       29.92S
JANESVILLE     CLEAR     64  63  94 W3        29.90R
$$

WIZ051-052-058>065-066-070>072-130900-
SOUTHEAST WISCONSIN

CITY           SKY/WX    TMP DP  RH WIND       PRES   REMARKS
MILWAUKEE      PTCLDY    67  63  87 NW7       29.87R
WAUKESHA       MOCLDY    63  61  94 W5        29.89R
MILWAUKEE/TIMM CLEAR     63  61  94 W5        29.87R
RACINE         CLEAR     66  63  90 W6        29.87R
BURLINGTON     MOCLDY    63  62  97 CALM      29.89R
KENOSHA        CLEAR     66  65  96 NW6       29.87R
FOND DU LAC    PTCLDY    63  60  90 SW3       29.87R
SHEBOYGAN      CLEAR     62  61  96 SW6       29.84S
WEST BEND      CLEAR     63  59  88 W5        29.86S
JUNEAU         CLOUDY    63  49  61 W9        29.89R HAZE
$$

LSZ147-162-130900-
LAKE SUPERIOR

STATION/POSITION TIME  TEMP    WIND        PRES    WAVE
                       AIR SEA DIR/SP/G            HT/PER
                 (UTC) (F)     (DEG/KT/KT) (MB)    (FT/S)
W MID LAKE BUOY  0750   45 38  270/ 12/ 14 1008.4R   1
PORT WING        0740   62     270/ 14/ 16 1011.2R
SAXON HARBOR     0700           CALM  /  8 1010.2F
$$

LMZ867-665-643>646-130900-
LAKE MICHIGAN

STATION/POSITION TIME  TEMP    WIND        PRES    WAVE
                       AIR SEA DIR/SP/G            HT/PER
                 (UTC) (F)     (DEG/KT/KT) (MB)    (FT/S)
N MID LAKE BUOY  0750   61 58  230/  8/  8 1007.4F   1/ 4
NORTHPORT PIER   0700   66     280/  7/ 11 1008.5F
SISTER BAY       0625   66     280/ 10/ 12   N/A
KEWAUNEE LAKESHO 0800   62     150/  1/  2 1010.3F
SHEBOYGAN LAKESH 0800   66     230/  6/  6 1010.2F
PORT WASHINGTON  0740   65     270/  4/  7 1011.2S
MILWAUKEE LAKESH 0800   67     290/  7/ 10   N/A
S MID LAKE BUOY  0750   65 63  280/  8/ 10 1009.7F   2/ 4
KENOSHA   LAKESH 0800   68     310/  7/  9   N/A
$$

TC  - TEMPERATURE IN CELSIUS
VSB - VISIBILITY IN STATUTE MILES
WCI - WIND CHILL INDEX
HX  - HEAT INDEX




USA.gov is the U.S. government's official web portal to all federal, state and local government web resources and services.